Regional Weather Roundup
Issued by NWS

Home | Current Version | Previous Version | Text Only | Print | Product List | Glossary Off
Versions: 1 2 3 4 5 6 7 8 9 10 11 12 13 14 15 16 17 18 19 20 21 22 23 24 25 26 27 28 29 30 31 32 33 34 35 36 37 38 39 40 41 42 43 44 45 46 47 48 49 50

000
ASUS43 KFSD 291610
RWRSD

WEATHER ROUNDUP FOR SOUTH DAKOTA
NATIONAL WEATHER SERVICE SIOUX FALLS SD
1100 AM CDT SUN MAR 29 2015

NOTE: "FAIR" INDICATES FEW OR NO CLOUDS BELOW 12,000 FEET WITH NO
SIGNIFICANT WEATHER AND/OR OBSTRUCTIONS TO VISIBILITY.


SDZ001>005-009-010-012>017-291700-
NORTHWEST AND NORTH CENTRAL SOUTH DAKOTA

CITY           SKY/WX    TMP DP  RH WIND       PRES   REMARKS
BUFFALO          N/A     47  31  53 W18       30.09S
FAITH            N/A     48  29  47 NW22G33   30.14F
MOBRIDGE       SUNNY     48  34  58 NW22G31   30.04R
$$

SDZ012>016-024>037-041>051-057-063-072>074-291700-
SOUTHWEST AND SOUTH CENTRAL SOUTH DAKOTA

CITY           SKY/WX    TMP DP  RH WIND       PRES   REMARKS
RAPID CTY ARPT MOSUNNY   51  31  46 N26G33    30.20R
PIERRE         SUNNY     48  30  49 NW28G40   30.10R
CUSTER         SUNNY     45  20  36 NW9G17    30.20R
ELLSWORTH AFB  MOSUNNY   49  32  50 N25G35    30.18R
PHILIP         SUNNY     50  26  39 NW25G33   30.18R
PINE RIDGE     SUNNY     50  30  46 N12       30.23R
SPEARFISH      FAIR      48  32  53 W22G28    30.19F
WINNER         FAIR      50  29  44 NW31G45   30.11R
$$

SDZ004>011-016>023-039-040-291700-
NORTHEAST SOUTH DAKOTA

CITY           SKY/WX    TMP DP  RH WIND       PRES   REMARKS
ABERDEEN       MOSUNNY   48  35  60 NW30G38   29.99R
WATERTOWN      PTSUNNY   42  35  76 N35G44    29.88R
SISSETON         N/A     46  38  73 N33G47    29.84R
$$

SDZ017-020-022-023-036>040-048>070-291700-
SOUTHEAST SOUTH DAKOTA

CITY           SKY/WX    TMP DP  RH WIND       PRES   REMARKS
SIOUX FALLS    CLOUDY    45  36  70 NW31G47   29.89R
HURON          CLOUDY    46  34  62 NW35G46   29.99R
CHAMBERLAIN    MOSUNNY   47  32  56 NW31G44   30.07R
MITCHELL       CLOUDY    47  35  63 N36G48    29.99R
YANKTON        CLOUDY    48  36  61 NW29G39   29.97R
$$

ABBREVIATIONS USED IN REMARKS
   TC - TEMPERATURE IN CELSIUS
  WCI - WIND CHILL INDEX
   HX - HEAT INDEX
  VSB - VISIBILITY



USA.gov is the U.S. government's official web portal to all federal, state and local government web resources and services.